2014 MP41

Initial reported observation by Catalina Sky Survey on 2014-06-28.
(Discoverer will be defined when the object is numbered. See this note on how discoverers are determined.)

Orbit

Orbit type: Apollo
Near-Earth Object

Note: WebGL enabled browser required.

epoch2023-09-13.0
epoch JD2460200.5
perihelion date2023-07-11.99642
perihelion JD2460137.49642
argument of perihelion (°)132.98125
ascending node (°)281.60698
inclination (°)27.35311
eccentricity0.5898997
perihelion distance (AU)0.6943071
Tisserand w.r.t. Jupiter3.9
ΔV w.r.t. Earth (km/sec)10.6
semimajor axis (AU)1.6930178
mean anomaly (°)28.18881
mean daily motion (°/day)0.44741610
aphelion distance (AU)2.692
period (years)2.2
P-vector [x]0.49932483
P-vector [y]0.59894808
P-vector [z]0.62604786
Q-vector [x]-0.74034132
Q-vector [y]0.67030825
Q-vector [z]-0.05080927
absolute magnitude18.38
phase slope0.15
uncertainty1
referenceMPEC 2024-B20
observations used67
oppositions4
arc length (days)1737
first opposition used2014
last opposition used2019
residual rms (arc-secs)0.49
perturbers coarse indicatorM-v
perturbers precise indicator003Ek
first observation date used2014-06-28.0
last observation date used2019-03-31.0
computer nameBell
JD of orbit computation2458573.959110
perihelion JD uncertainty (days)2.8623E-05
argument of perihelion uncertainty (°)3.8812E-05
ascending node uncertainty (°)2.9191E-05
inclination uncertainty (°)2.0676E-05
eccentricity uncertainty 1.1288E-07
perihelion distance uncertainty (AU)1.8144E-07
Minimum Orbit Intersection Distances (in AU)
for orbit epoch: 2460200.5, reference: E2024-B20
Mercury0.40524
Venus0.04905
Earth0.16261
Mars0.24606
Jupiter2.90841
Saturn7.55976
Uranus16.3963
Neptune28.0975

Observations

67 total observations over interval: 2014 06 28.37186 – 2019 03 31.16443
These data are available for download (format description).

Date (UT) J2000 RA J2000 Dec Magn Location Ref
2014 06 28.37186 23 14 49.92 +20 24 26.1 20.4 V 703 – Catalina Sky Survey MPS 521481
2014 06 28.38992 23 14 53.04 +20 25 36.5 20.1 V 703 – Catalina Sky Survey MPS 521481
2014 06 28.44423 23 15 02.55 +20 29 12.1 19.7 R 291 – LPL/Spacewatch II MPS 521481
2014 06 28.44527 23 15 02.73 +20 29 16.2 19.6 R 291 – LPL/Spacewatch II MPS 521481
2014 06 28.44631 23 15 02.93 +20 29 20.5 19.4 R 291 – LPL/Spacewatch II MPS 521481
2014 06 29.34351 23 17 45.42 +21 29 02.8 20.1 V I52 – Steward Observatory, Mt. Lemmon Station MPS 521481
2014 06 29.34392 23 17 45.49 +21 29 04.7 20.5 V I52 – Steward Observatory, Mt. Lemmon Station MPS 521481
2014 06 29.34434 23 17 45.61 +21 29 06.8 20.4 V I52 – Steward Observatory, Mt. Lemmon Station MPS 521481
2014 06 30.052818 23 19 56.67 +22 17 05.1 19.4 V I93 – St Pardon de Conques MPS 521481
2014 06 30.058511 23 19 57.72 +22 17 28.6 19.6 V I93 – St Pardon de Conques MPS 521481
2014 06 30.063608 23 19 58.68 +22 17 49.6 19.3 V I93 – St Pardon de Conques MPS 521481
2014 06 30.40572 23 21 03.07 +22 41 19.5 19.8 V I52 – Steward Observatory, Mt. Lemmon Station MPS 521481
2014 06 30.40725 23 21 03.37 +22 41 27.0 20.2 V I52 – Steward Observatory, Mt. Lemmon Station MPS 521481
2014 06 30.40878 23 21 03.66 +22 41 33.2 20.4 V I52 – Steward Observatory, Mt. Lemmon Station MPS 521481
2014 06 30.41031 23 21 03.86 +22 41 38.0 20.2 V I52 – Steward Observatory, Mt. Lemmon Station MPS 521481
2014 07 01.06561 23 23 09.38 +23 27 02.1 20.0 V 958 – Observatoire de Dax MPS 521481
2014 07 01.07294 23 23 10.80 +23 27 31.9 19.9 V 958 – Observatoire de Dax MPS 521481
2014 07 01.08765 23 23 13.64 +23 28 34.9 19.6 V 958 – Observatoire de Dax MPS 521481
2014 07 01.37435 23 24 09.47 +23 48 39.6 20.2 V I52 – Steward Observatory, Mt. Lemmon Station MPS 521481
2014 07 01.37477 23 24 09.57 +23 48 41.3 20.1 V I52 – Steward Observatory, Mt. Lemmon Station MPS 521481
2014 07 01.37518 23 24 09.63 +23 48 43.5 20.0 V I52 – Steward Observatory, Mt. Lemmon Station MPS 521481
2014 07 02.05428 23 26 23.72 +24 36 40.8 19.8 R J95 – Great Shefford MPS 521481
2014 07 02.06552 23 26 25.98 +24 37 28.9   J95 – Great Shefford MPS 521481
2014 07 02.46064 23 27 45.24 +25 05 49.2 19.1 R 291 – LPL/Spacewatch II MPS 521481
2014 07 02.46169 23 27 45.47 +25 05 53.9 18.9 R 291 – LPL/Spacewatch II MPS 521481
2014 07 02.46274 23 27 45.67 +25 05 58.3 19.3 R 291 – LPL/Spacewatch II MPS 521481
2014 07 03.604094 23 31 41.606 +26 28 52.33 19.3 R 568 – Maunakea MPS 521481
2014 07 03.604568 23 31 41.698 +26 28 54.44 19.4 R 568 – Maunakea MPS 521481
2014 07 06.01038 23 40 33.27 +29 29 13.5   204 – Schiaparelli Observatory MPS 523987
2014 07 06.02323 23 40 36.22 +29 30 12.5 19.4 R 204 – Schiaparelli Observatory MPS 523987
2014 07 06.03608 23 40 39.13 +29 31 12.2   204 – Schiaparelli Observatory MPS 523987
2014 07 07.324297 23 45 45.04 +31 10 56.5 20.3 V H21 – Astronomical Research Observatory, Westfield MPS 522321
2014 07 07.331387 23 45 46.76 +31 11 30.1 20.4 V H21 – Astronomical Research Observatory, Westfield MPS 522321
2014 07 07.338621 23 45 48.48 +31 12 04.1 20.4 V H21 – Astronomical Research Observatory, Westfield MPS 522321
2014 07 10.357781 23 58 54.68 +35 12 56.4 19.8 V H21 – Astronomical Research Observatory, Westfield MPS 522834
2014 07 10.362286 23 58 55.91 +35 13 18.2 20.0 V H21 – Astronomical Research Observatory, Westfield MPS 522834
2014 07 10.365983 23 58 56.94 +35 13 36.0 20.0 V H21 – Astronomical Research Observatory, Westfield MPS 522834
2014 07 16.34465 00 31 10.09 +43 28 24.3 19.9 V H21 – Astronomical Research Observatory, Westfield MPS 522834
2014 07 16.34820 00 31 11.47 +43 28 42.4 19.3 V H21 – Astronomical Research Observatory, Westfield MPS 522834
2014 07 22.95892 01 21 17.87 +52 18 32.6 20.0 V 033 – Karl Schwarzschild Observatory, Tautenburg MPS 523436
2014 07 22.96367 01 21 20.45 +52 18 54.0 20.0 V 033 – Karl Schwarzschild Observatory, Tautenburg MPS 523436
2014 07 22.98598 01 21 32.54 +52 20 35.0 19.5 V 033 – Karl Schwarzschild Observatory, Tautenburg MPS 523436
2016 09 28.09426 17 12 38.59 -01 11 55.3 20.4 V G96 – Mt. Lemmon Survey MPS 730771
2016 09 28.10293 17 12 39.03 -01 11 48.6 20.1 V G96 – Mt. Lemmon Survey MPS 730771
2016 09 28.10721 17 12 39.25 -01 11 45.5 20.3 V G96 – Mt. Lemmon Survey MPS 730771
2016 09 29.12787 17 13 33.60 -01 00 10.3   658 – Dominion Astrophysical Observatory MPS 730771
2016 09 29.13003 17 13 33.71 -01 00 08.6   658 – Dominion Astrophysical Observatory MPS 730771
2016 09 29.13112 17 13 33.76 -01 00 07.9   658 – Dominion Astrophysical Observatory MPS 730771
2017 01 20.30779 12 23 04.18 -58 09 44.3 18.7 V W88 – Slooh.com Chile Observatory, La Dehesa MPS 759935
2017 01 20.31097 12 23 02.61 -58 09 49.8 18.6 V W88 – Slooh.com Chile Observatory, La Dehesa MPS 759935
2017 01 21.32493 12 15 11.80 -58 36 46.8 18.7 V W88 – Slooh.com Chile Observatory, La Dehesa MPS 759935
2017 01 21.34225 12 15 03.53 -58 37 13.4 19.0 V W88 – Slooh.com Chile Observatory, La Dehesa MPS 759935
2017 03 14.29156 08 51 51.432 -46 18 01.91 19.5 i F51 – Pan-STARRS 1, Haleakala MPS 777669
2017 03 14.29947 08 51 51.190 -46 17 48.76 19.3 i F51 – Pan-STARRS 1, Haleakala MPS 777669
2017 03 14.30739 08 51 50.959 -46 17 35.81 19.4 i F51 – Pan-STARRS 1, Haleakala MPS 777669
2019 03 29.15108 04 16 12.78 +09 31 15.9 20.6 G I52 – Steward Observatory, Mt. Lemmon Station MPS 983032
2019 03 29.15184 04 16 13.04 +09 31 15.5 21.1 G I52 – Steward Observatory, Mt. Lemmon Station MPS 983032
2019 03 29.15260 04 16 13.28 +09 31 14.6 20.0 G I52 – Steward Observatory, Mt. Lemmon Station MPS 983032
2019 03 29.15337 04 16 13.52 +09 31 14.0 20.0 G I52 – Steward Observatory, Mt. Lemmon Station MPS 983032
2019 03 29.15413 04 16 13.83 +09 31 12.7 20.6 G I52 – Steward Observatory, Mt. Lemmon Station MPS 983032
2019 03 29.15490 04 16 14.12 +09 31 12.3   I52 – Steward Observatory, Mt. Lemmon Station MPS 983032
2019 03 29.15566 04 16 14.36 +09 31 11.7 20.2 G I52 – Steward Observatory, Mt. Lemmon Station MPS 983032
2019 03 29.15642 04 16 14.60 +09 31 11.4 20.1 G I52 – Steward Observatory, Mt. Lemmon Station MPS 983032
2019 03 31.16214 04 27 43.73 +08 59 20.0 20.7 G I52 – Steward Observatory, Mt. Lemmon Station MPS 983032
2019 03 31.16291 04 27 44.02 +08 59 18.7 19.9 G I52 – Steward Observatory, Mt. Lemmon Station MPS 983032
2019 03 31.16367 04 27 44.25 +08 59 18.4 19.9 G I52 – Steward Observatory, Mt. Lemmon Station MPS 983032
2019 03 31.16443 04 27 44.52 +08 59 17.6 20.0 G I52 – Steward Observatory, Mt. Lemmon Station MPS 983032